Regional Weather Roundup
Issued by NWS Pendleton, OR

Home | Current Version | Previous Version | Text Only | Print | Product List | Glossary On
Versions: 1 2 3 4 5 6 7 8 9 10 11 12 13 14 15 16 17 18 19 20 21 22 23 24 25 26 27 28 29 30 31 32 33 34 35 36 37 38 39 40 41 42 43 44 45 46 47 48 49 50
000
ASUS46 KPDT 240125
RWRPDT
PENDLETON REGIONAL WEATHER ROUNDUP
NATIONAL WEATHER SERVICE PENDLETON OREGON
600 PM PDT SAT JUL 23 2016

NOTE: FAIR INDICATES FEW OR NO CLOUDS BELOW 12,000 FEET WITH NO
SIGNIFICANT WEATHER AND/OR OBSTRUCTIONS TO VISIBILITY.

# INDICATES UNOFFICIAL STATION AND DATA

WAZ520-240210-
EAST SLOPES OF WASHINGTON CASCADES

CITY            SKY/WX      TMP DP  RH  WIND    PRES   REMARKS
#BUMPING DAM    N/A          0  -7  71  CALM    N/A
#CLE ELUM HS    N/A         68  49  51  W13     30.09F
#CLE ELUM 2NW   N/A         66  47  50  SW12    N/A
#CLIFFDEL 2NW   N/A         25  17  71  E1      N/A
#GLENWOOD       N/A         77  53  43  S3      30.05F
#MANASTASH CYN  N/A         75  41  29  CALM    30.08F
#NELSON 3SW     N/A         66  48  52  CALM    30.27F
#NILE           N/A         74  42  32  W5      29.33S
#RONALD 2NW     N/A         71  N/A N/A W1      30.22S
#TEANAWAY 4NE   N/A         71  53  53  W2      N/A
#TROUT LAKE 1NE N/A         74  54  50  W5      30.05F
#TROUT LAKE 1E  N/A         74  55  51  CALM    30.08S
$$

WAZ521-240210-
SIMCOE HIGHLANDS

CITY            SKY/WX      TMP DP  RH  WIND    PRES   REMARKS
#CENTERVILLE 1SWN/A         77  52  42  W13     29.99F
#GOLDENDALE     N/A          0  -4  83  NW6     N/A
#GOLDENDALE 1NE N/A         80  35  20  SW3     N/A
#GOLDENDALE 4W  N/A         81  58  46  W12     30.10F
#GOODNOE HILLS  N/A         84  47  28  W17     29.97F
#LYLE 6NE       N/A         75  55  50  SW10    30.02F
$$

WAZ026-240210-
KITTITAS VALLEY

CITY            SKY/WX      TMP DP  RH  WIND    PRES   REMARKS
ELLENSBURG AP   SUNNY       77  47  35  NW22G31 30.09S
#ELLENSBURG CWU N/A         77  48  36  NW15    29.98F
#ELLENSBURG 3NE N/A         74  51  44  N10     30.07F
#ELLENSBURG     N/A         77  49  37  N5      N/A
#ELLENSBURG 1E  N/A         75  N/A N/A NW1     N/A
#KITTITAS 4N    N/A         75  50  41  NW12    30.10F
#KITTITAS 3S    N/A         74  52  46  NW7     30.01F
#THORP 6N       N/A         69  48  47  W20G31  30.08S
$$

WAZ027-240210-
YAKIMA VALLEY

CITY            SKY/WX      TMP DP  RH  WIND    PRES   REMARKS
SUNNYSIDE AP    SUNNY       83  47  28  CALM    30.03F
YAKIMA AIRPORT  MOSUNNY     88  43  21  SE3     30.05F
YAKIMA-VAGABOND N/A         84  40  21  W3      30.04F
#DONALD 2NE     N/A         90  82  77  SE1     30.03F HX 111
#GRANDVIEW      N/A         85  44  24  NW2     30.02F
#MABTON         N/A         84  52  33  CALM    30.02F
#NACHES 2SW     N/A         83  49  31  W3      30.10F
#TERRACE HTS    N/A         88  49  26  CALM    29.97F
#WEST VALLEY    N/A         83  46  27  W1      29.98F
#W YAKIMA       N/A         83  48  30  SE1     30.00F
#WHITE SWAN 5E  N/A         82  51  34  E2      30.01F
#WILEY CITY 3W  N/A         83  38  20  CALM    30.03F
$$

WAZ028-240210-
LOWER COLUMBIA BASIN...WASHINGTON

CITY            SKY/WX      TMP DP  RH  WIND    PRES   REMARKS
PASCO           SUNNY       86  46  25  NE6     30.04F
PROSSER AWOS    N/A         84  45  26  W5      30.06F
RICHLAND AWOS   SUNNY       86  47  26  NE7     30.03F
#BENTON CITY    N/A         84  42  23  NW5     29.91F
#CONNELL 5N     N/A         84  44  25  CALM    30.03F
#CONNELL 5NW    N/A         82  47  29  CALM    29.98F
#ELTOPIA 6NW    N/A         82  48  31  CALM    29.03F
#KAHLOTUS       N/A         80  43  27  N6      30.01F
#KENNEWICK 3S   N/A         82  53  37  CALM    30.01F
#PATERSON       N/A         84  47  28  W2      29.99F
#SAGEMOOR 2W    N/A         80  48  33  E2      29.88F
#TOUCHET 2S     N/A         84  49  30  N2      29.99F
#WEST PASCO     N/A         85  53  33  N5      30.03F
$$

WAZ029-240210-
FOOTHILLS OF THE BLUES...WASHINGTON

CITY            SKY/WX      TMP DP  RH  WIND    PRES   REMARKS
WALLA WALLA AP  SUNNY       82  37  20  W7      30.07F
#CLYDE 6NW      N/A         81  47  30  SW2     30.01F
#LOWDEN 2SE     N/A         85  50  30  CALM    29.99F
#PLEASANT VIEW 1N/A         81  41  24  W1      30.05F
#PRESCOTT       N/A         82  47  29  W5      30.00F
#WHITMAN COLLEGEN/A         82  45  27  W3      30.06F
#WAITSBURG 5S   N/A         82  42  24  W3      30.11F
#WAITSBURG 8N   N/A         82  24  12  S6      30.01S
#WALLA WALLA U  N/A         84  44  25  CALM    30.01F
#WHITMAN MISSIONN/A         84  47  28  CALM    30.03F
$$

WAZ030-240210-
BLUE MOUNTAINS...WASHINGTON

CITY            SKY/WX      TMP DP  RH  WIND    PRES   REMARKS
#DIXIE 5SE      N/A         74  42  32  W6      30.08F
$$

ORZ009-041-WAZ024-240210-
COLUMBIA RIVER GORGE

CITY            SKY/WX      TMP DP  RH  WIND    PRES   REMARKS
HOOD RIVER AP   SUNNY       77  50  39  W6      30.11S
THE DALLES AP   SUNNY       80  50  35  N16     30.05F
#ARLINGTON AIRPON/A         84  39  20  NW2     30.02F
#LYLE           N/A         76  55  48  W17G35  30.06F
#MARYHILL 2W    N/A         78  51  39  W6      N/A
#MOSIER 1S      N/A         75  39  27  NW10    30.09S
#MURDOCK        N/A         79  54  42  N15     30.00F
#RUFUS DOT      N/A         83  49  31  W20     N/A
#SMITHVILLE     N/A         79  53  41  W15     30.03F

$$

ORZ510-240210-
NORTH CENTRAL OREGON

CITY            SKY/WX      TMP DP  RH  WIND    PRES   REMARKS
#ANTELOPE       N/A         81  43  26  NW2     29.88F
#CHENOWITH 1W   N/A         72  48  43  W30     N/A
#DUFUR 9E       N/A         72  45  38  NW20G26 30.11F
#GRASS VALLEY 1SN/A         78  40  26  N9      30.06F
#KENT DOT       N/A         78  36  22  N8      N/A
#SHANIKO 5WSW   N/A         78  34  20  N5      N/A
#SHANIKO 4NW    N/A         75  49  40  N10     30.18F
#TYGH VALLEY 2NEN/A         83  46  27  N12     30.01F
#WAPANITIA AIRPON/A         82  46  28  CALM    30.03F
#WASCO AIRPORT  N/A         81  37  21  W9      N/A
#WASCO 5NE      N/A         81  48  32  W7      30.02F
$$

ORZ511-240210-
CENTRAL OREGON

CITY            SKY/WX      TMP DP  RH  WIND    PRES   REMARKS
BEND AIRPORT    PTCLDY      81  36  20  VRB7    30.12F
MADRAS AIRPORT  PTCLDY      90  34  14  N12     30.12F HX 86
PRINEVILLE AP   PTCLDY      81  37  21  NW8     30.12F
REDMOND AIRPORT PTCLDY      83  34  17  N10     30.12F
#ASHWOOD SCHOOL N/A         82  33  17  NW5     30.05F
#BEND 1SW       N/A         77  37  24  NE3     N/A
#BEND-AWBREY    N/A         83  40  22  NE3     30.14F
#CULVER         N/A         81  42  25  NE3     29.94F
#CULVER 8W      N/A         82  28  14  N2      30.10F
#LAKE BILLY CHINN/A         82  N/A N/A N10     30.13R
#MADRAS 4S      N/A         81  19  10  N10     30.17F
#POWELL BUTTE 3EN/A         80  36  21  NW6     N/A
#POWELL BUTTE   N/A         79  44  29  N3      30.06F
#PRINEVILLE 3N  N/A         79  48  34  N6      30.06F
#WARM SPRINGS   N/A         85  47  27  CALM    30.03F

$$


ORZ509-240210-
EAST SLOPES OF OREGON CASCADES

CITY            SKY/WX      TMP DP  RH  WIND    PRES   REMARKS
SISTERS AWOS    N/A         81  45  28  W10     30.09F
#CAMP SHERMAN   N/A         79  41  26  N2      30.11R
#LA PINE 4NW    N/A         79  45  30  NW1     30.06F
#LAVA BUTTE DOT N/A         78  33  19  N1      N/A
#SISTERS AIRPOR N/A         80  54  41  N5      30.17S
#SISTERS ODOT   N/A         80  N/A N/A SW7     N/A
#SISTERS 3N     N/A         80  42  26  E3      30.11S
#SUNRIVER       N/A         80  39  23  N2      30.03F
#SUTTLE LK DOT  N/A         72  47  41  NE3     N/A
#TUMALO 3W      N/A         80  44  28  N7      29.89F
#WANOGA BUTTE D N/A         68  37  32  E8      N/A

$$

ORZ044-240210-
LOWER COLUMBIA BASIN...OREGON

CITY            SKY/WX      TMP DP  RH  WIND    PRES   REMARKS
HERMISTON       SUNNY       85  39  20  W3      30.04F
#BOARDMAN 8SW   N/A         86  44  23  N1      30.01F
#ECHO 8SW       N/A         84  45  26  N3      30.05F
#I-84 EX 198 DOTN/A         81  50  34  E7      N/A
#IRRIGON 4NW    N/A         29  26  88  N5      N/A
#UMATILLA       N/A         87  45  23  CALM    29.95F
$$

ORZ507-240210-
NORTHERN FOOTHILLS OF THE BLUES

CITY            SKY/WX      TMP DP  RH  WIND    PRES   REMARKS
PENDLETON AIRPT SUNNY       82  37  20  W9      30.07F
#ADAMS 3WNW     N/A         82  39  22  NW1     30.01F
#ATHENA         N/A         82  42  24  CALM    30.04F
#CAYUSE         N/A         81  43  26  W6      30.01F
#HELIX SCHOOL   N/A         81  39  22  CALM    30.02F
#HELIX 3N       N/A         78  43  29  N7      30.06F
#HELIX 6SW      N/A         80  37  21  W8      30.07F
#HOLDMAN 5SE    N/A         81  37  21  W1      30.06F
#HOLDMAN 6E     N/A         81  36  20  E5      29.84F
#M-FREEWATER 5SEN/A         83  50  32  CALM    30.06F
#PENDLETON DNTN N/A         84  44  25  CALM    30.07F
#PDT AQUATIC CTRN/A         88  44  22  NW3     29.92F
#PDT SUNRIDGE   N/A         83  41  23  W5      30.07F
#PENDLETON 7NW  N/A         81  49  33  CALM    32.29S
#PILOT ROCK 1S  N/A         80  43  27  N6      30.09F
#PILOT ROCK     N/A         83  44  25  NE6     30.10F
#TUTUILLA       N/A         81  43  26  CALM    30.03F
#UMAPINE 2E     N/A         84  48  29  N2      30.01F
#WESTON SCHOOL  N/A         79  39  24  SE5     29.88F

$$

ORZ508-240210-
SOUTHERN FOOTHILLS OF THE BLUES

CITY            SKY/WX      TMP DP  RH  WIND    PRES   REMARKS
LEXINGTON       SUNNY       82  37  20  VRB3    30.11F
#CONDON 5W      N/A         75  32  21  N9      30.12F
#HEPPNER EOC    N/A         82  38  21  N2      29.97F
#HEPPNER 4NE    N/A         76  37  24  W9      30.04F
#LEXINGTON 2SE  N/A         84  42  23  W9      30.04F
#RUGGS 5NE      N/A         81  27  14  NW7     30.30F
#RUGGS 2SW      N/A         78  35  21  N6      30.05F

$$

ORZ502-503-240210-
BLUE MOUNTAINS

CITY            SKY/WX      TMP DP  RH  WIND    PRES   REMARKS
MEACHAM         SUNNY       73  35  25  VRB3    30.18F
#BATTLE MTN DOT N/A         70  38  31  N2      N/A
#CUTSFORTH PARK N/A         71  40  32  CALM    29.96F
#GREENHORN 9SW  N/A         78  31  18  NW2     30.12F
#HARDMAN 10S    N/A         61  34  36  N5      30.22R
#HEPPNER 15SE   N/A         70  39  32  N6      30.11F
#LADD CYN SMT   N/A         77  37  24  NW9     N/A
#LADD CREEK ODOTN/A         77  41  28  NE10    N/A
#N POWDER DOT   N/A         76  46  34  N15     N/A
#PIKES PEAK     N/A         70  40  34  W1      27.99S
#TOLLGATE       N/A         65  37  35  N1      30.07F
#TROY SCHOOL    N/A         88  51  28  CALM    29.79F
#UKIAH          N/A         75  41  29  NW5     29.97F
#WESTON 4E      N/A         75  44  33  CALM    30.02F
$$

ORZ505-240210-
JOHN DAY BASIN

CITY            SKY/WX      TMP DP  RH  WIND    PRES   REMARKS
JOHN DAY        SUNNY       82  31  16  N7      30.13F
#DAYVILLE SCHOOLN/A         85  29  13  N7      30.03F
#MITCHELL       N/A         82  45  27  CALM    30.27F
#MITCHELL 8NW   N/A         78  35  21  NE3     30.22F
#MONUMENT HS    N/A         84  36  18  N7      29.96F
#MT. VERNON 5SE N/A         79  34  20  W1      30.10F
#SPRAY SCHOOL   N/A         87  N/A N/A CALM    N/A
$$

ORZ506-240210-
OCHOCO AND JOHN DAY HIGHLANDS

CITY            SKY/WX      TMP DP  RH  WIND    PRES   REMARKS
#HORSE RIDGE DO N/A         78  28  16  N8      N/A
#KEYES SMT DOT  N/A         77  35  22  SW3     N/A
#PAULINA SCHOOL N/A         82  26  13  SW10    N/A
#PINE MTN OBS   N/A         68  33  27  NW6     N/A
#PRAIRIE CITY   N/A         84  37  19  CALM    30.26F
#SENECA         N/A         78  N/A N/A W3      N/A
#SENECA 9NW     N/A         78  32  19  CALM    29.99S
$$

ORZ049-240210-
GRANDE RONDE VALLEY

CITY            SKY/WX      TMP DP  RH  WIND    PRES   REMARKS
LA GRANDE       SUNNY       81  37  21  N9      30.10F
#COVE           N/A         81  47  30  NW5     30.14F
#COVE SCHOOL    N/A         79  40  25  N2      30.11F
#COVE 6NW       N/A         79  43  28  N5      29.98F
#ELGIN 3N       N/A         80  34  19  CALM    30.08F
#ELGIN 1E       N/A         80  41  25  CALM    N/A
#ISLAND CITY 4N N/A         73  56  55  N1      30.19F
#LADD CYN DOT   N/A         81  45  28  NW8     N/A
#UNION 1S       N/A         81  41  24  NW7     29.91F
$$

ORZ050-240210-
WALLOWA COUNTY

CITY            SKY/WX      TMP DP  RH  WIND    PRES   REMARKS
JOSEPH AIRPORT  PTCLDY      75  37  25  NW3     N/A
#ENTERPRISE AP  N/A         49  29  46  CALM    30.08F
#ENTERPRISE HS  N/A         77  44  31  NW6     30.13F
#IMNAHA SCHOOL  N/A         81  47  30  N2      30.02F
#JOSEPH 3N      N/A         73  41  31  N3      30.16F
#JOSEPH 3W      N/A         72  42  34  S3      30.03F
#LOSTINE        N/A         76  41  28  N5      29.82F
#LOSTINE 3SE    N/A         76  39  26  VRB10   30.10F
#MT HOWARD 8000 N/A         56  37  49  NW2     30.39F
#PROMISE 1S     N/A         74  45  35  E6      30.13F
#WALLOWA SCHOOL N/A         80  39  23  W1      30.07F



$$



USA.gov is the U.S. government's official web portal to all federal, state and local government web resources and services.